Regional Weather Roundup
Issued by NWS

Home | Current Version | Previous Version | Graphics & Text | Print | Product List | Glossary On
Versions: 1 2 3 4 5 6 7 8 9 10 11 12 13 14 15 16 17 18 19 20 21 22 23 24 25 26 27 28 29 30 31 32 33 34 35 36 37 38 39 40 41 42 43 44 45 46 47 48 49 50
000
ASUS43 KBIS 201802
RWRND

NORTH DAKOTA REGIONAL WEATHER ROUNDUP
NATIONAL WEATHER SERVICE BISMARCK ND
100 PM CDT WED SEP 20 2017

NOTE: "FAIR" INDICATES FEW OR NO CLOUDS BELOW 12,000 FEET WITH NO
SIGNIFICANT WEATHER AND/OR OBSTRUCTIONS TO VISIBILITY.


NDZ001>003-009>011-017-201900-
NORTHWEST NORTH DAKOTA

CITY           SKY/WX    TMP DP  RH WIND       PRES   REMARKS
WILLISTON      SUNNY     61  38  42 SW16G23   29.61S
6HR MIN TEMP:  39; 6HR MAX TEMP:  61;

MINOT          SUNNY     64  41  42 SW15G25   29.61S
MINOT AFB      SUNNY     63  41  45 SW20G26   29.59S
$$

NDZ018>021-031>035-040>046-201900-
SOUTHWEST NORTH DAKOTA

CITY           SKY/WX    TMP DP  RH WIND       PRES   REMARKS
BISMARCK       SUNNY     68  39  34 SW18G32   29.73S
6HR MIN TEMP:  42; 6HR MAX TEMP:  68;

DICKINSON      SUNNY     63  35  35 SW24      29.67F
GARRISON         N/A     62  41  46 SW23      29.65S
6HR MIN TEMP:  42; 6HR MAX TEMP:  63;

HETTINGER ARPT SUNNY     63  37  38 S9G18     29.75F
$$

NDZ004>008-012>016-024-026-027-054-201900-
NORTHEAST NORTH DAKOTA

CITY           SKY/WX    TMP DP  RH WIND       PRES   REMARKS
GRAND FORKS    MOSUNNY   69  42  37 SW12G23   29.70R
GRND FRKS AFB  SUNNY     70  41  35 SW12G21   29.70R
DEVILS LAKE    SUNNY     65  40  39 SW18G30   29.67S
$$

NDZ022-023-025-028>030-036>039-047>053-201900-
SOUTHEAST NORTH DAKOTA

CITY           SKY/WX    TMP DP  RH WIND       PRES   REMARKS
FARGO          SUNNY     68  42  38 SW12      29.76R
6HR MIN TEMP:  52; 6HR MAX TEMP:  69;

JAMESTOWN      SUNNY     66  40  38 SW17G29   29.73S
$$





USA.gov is the U.S. government's official web portal to all federal, state and local government web resources and services.